Davenport, IA

3:05 PM CDT on September 25, 2017 (GMT -0500)
Davenport Municipal

Weather History for KDVN - August, 2014

Change the Weather History Date:

Wednesday, August 13, 2014

  Actual Average Record
Temperature  
Mean Temperature 66 °F 72 °F  
Max Temperature 82 °F 82 °F 93 °F (1972)
Min Temperature 49 °F 62 °F 42 °F (2004)
Degree Days  
Heating Degree Days 0 0  
Month to date heating degree days 2 0  
Since 1 June heating degree days 24 28  
Since 1 July heating degree days 20 4  
Cooling Degree Days 1 7  
Month to date cooling degree days 66 98  
Year to date cooling degree days 514 599  
Since 1 June cooling degree days 406 538  
Growing Degree Days 14 (Base 50)    
Moisture  
Dew Point 56 °F    
Average Humidity 69    
Maximum Humidity 93    
Minimum Humidity 45    
Precipitation  
Precipitation 0.00 in 0.14 in 1.23 in (2010)
Month to date precipitation 0.59 2.23  
Year to date precipitation 21.94 23.43  
Snow  
Snow 0.00 in - - ()
Month to date snowfall 0.0  
Since 1 June snowfall 0.0  
Since 1 July snowfall 0.0  
Snow Depth 0.00 in    
Sea Level Pressure  
Sea Level Pressure 30.06 in    
Wind  
Wind Speed 8 mph (West)    
Max Wind Speed 15 mph    
Max Gust Speed 20 mph    
Visibility 10 miles    
Events      
T = Trace of Precipitation, MM = Missing Value Source: NWS Daily Summary

Daily Weather History Graph

Daily Weather History Graph

Search for Another Location

Airport or City:

Trip Planner

Search our weather history database for the weather conditions in past years. The results will help you decide how hot, cold, wet, or windy it might be!

Date:

Astronomy

Aug. 13, 2014 Rise Set
Actual Time 6:08 AM CDT 8:04 PM CDT
Civil Twilight 5:38 AM CDT 8:34 PM CDT
Nautical Twilight 5:02 AM CDT 9:11 PM CDT
Astronomical Twilight 4:22 AM CDT 9:50 PM CDT
Moon 9:46 PM CDT (8/13) 9:40 AM CDT (8/13)
Length of Visible Light 14h 55m
Length of Day
13h 55m
Waning Gibbous, 87% of the Moon is Illuminated
Aug 13
Waning Gibbous
Aug 17
Last Quarter
Aug 25
New
Sep 2
First Quarter
Sep 8
Full

Hourly Weather History & Observations

Time (CDT) Temp. Heat Index Dew Point Humidity Pressure Visibility Wind Dir Wind Speed Gust Speed Precip Events Conditions
1:52 AM 51.1 °F - 48.0 °F 89% 30.04 in 10.0 mi WNW 6.9 mph - N/A   Clear
2:52 AM 50.0 °F - 48.0 °F 93% 30.04 in 10.0 mi West 6.9 mph - N/A   Clear
3:52 AM 48.9 °F - 46.9 °F 93% 30.05 in 10.0 mi WNW 3.5 mph - N/A   Clear
4:52 AM 50.0 °F - 46.9 °F 89% 30.06 in 10.0 mi West 6.9 mph - N/A   Clear
5:52 AM 50.0 °F - 46.9 °F 89% 30.07 in 10.0 mi West 4.6 mph - N/A   Clear
7:52 AM 57.9 °F - 54.0 °F 87% 30.10 in 10.0 mi West 5.8 mph - N/A   Clear
8:52 AM 64.9 °F - 57.0 °F 75% 30.10 in 10.0 mi West 6.9 mph - N/A   Clear
10:52 AM 75.9 °F - 57.9 °F 54% 30.09 in 10.0 mi West 10.4 mph - N/A   Clear
11:52 AM 78.1 °F - 59.0 °F 52% 30.09 in 10.0 mi West 9.2 mph - N/A   Clear
12:52 PM 79.0 °F - 57.9 °F 48% 30.08 in 10.0 mi WNW 10.4 mph 19.6 mph N/A   Clear
1:52 PM 81.0 °F 81.3 °F 59.0 °F 47% 30.07 in 10.0 mi WNW 13.8 mph 19.6 mph N/A   Partly Cloudy
3:52 PM 81.0 °F 81.3 °F 59.0 °F 47% 30.05 in 10.0 mi WNW 15.0 mph 20.7 mph N/A   Clear
4:52 PM 81.0 °F 81.3 °F 59.0 °F 47% 30.04 in 10.0 mi WNW 13.8 mph 19.6 mph N/A   Partly Cloudy
5:52 PM 80.1 °F 80.9 °F 60.1 °F 50% 30.04 in 10.0 mi West 10.4 mph - N/A   Clear
6:52 PM 78.1 °F - 60.1 °F 54% 30.03 in 10.0 mi West 8.1 mph - N/A   Clear
7:52 PM 72.0 °F - 61.0 °F 68% 30.03 in 10.0 mi West 6.9 mph - N/A   Clear
8:52 PM 71.1 °F - 61.0 °F 70% 30.04 in 10.0 mi WSW 8.1 mph - N/A   Overcast
9:52 PM 69.1 °F - 61.0 °F 75% 30.04 in 10.0 mi West 8.1 mph - N/A   Mostly Cloudy
11:52 PM 64.0 °F - 61.0 °F 90% 30.06 in 10.0 mi WNW 5.8 mph - N/A   Mostly Cloudy